Overview Statistics Trail Chart Weather Telemetry Raw packets
 

This is the latest recevied weather packets stored in our database for station/object LKCS. If no packets are shown the sender has not sent any weather packets the latest 10 day(s).

<< 6 7 8 9 10 11 12 >>
Time Temp. Humidity Pressure Rain* Wind** Luminosity Snow
1788485550 18.89° C 68% 1020 hPa - - - -
1788483788 20° C 60% 1020 hPa - - - -
1788481951 18.89° C 68% 1020 hPa - - - -
1788480169 20° C 64% 1020 hPa - - - -
1788478351 18.89° C 68% 1020 hPa - - - -
1788476600 17.22° C 77% 1020 hPa - - - -
1788474750 17.22° C 82% 1021 hPa - - - -
1788472986 16.11° C 87% 1021 hPa - - - -
1788471151 17.22° C 88% 1021 hPa - - - -
1788469387 17.22° C 88% 1021 hPa - - - -
1788467551 17.22° C 88% 1021 hPa - - - -
1788465762 17.22° C 82% 1021 hPa - - - -
1788463951 17.22° C 82% 1021 hPa - - - -
1788462165 17.78° C 77% 1021 hPa - - - -
1788460385 17.22° C 82% 1021 hPa - - - -
1788458563 17.78° C 77% 1021 hPa - - - -
1788456757 18.89° C 72% 1021 hPa - - - -
1788454962 22.22° C 49% 1020 hPa - - - -
1788453158 22.78° C 43% 1020 hPa - - - -
1788451362 22.78° C 46% 1020 hPa - - - -
1788449585 23.89° C 44% 1020 hPa - - - -
1788447795 23.89° C 44% 1020 hPa - - - -
1788445985 23.89° C 44% 1020 hPa - - - -
1788445225 23.89° C 41% 1020 hPa - - - -
1788444169 25° C 41% 1020 hPa - - - -

* Rain since midnight (hover to see other rain measurements)
** Current wind speed in m/s (hover to see current wind gust speed)